Regional Weather Roundup
Issued by NWS Midland/Odessa, TX

Home | Current Version | Previous Version | Text Only | Print | Product List | Glossary On
Versions: 1 2 3 4 5 6 7 8 9 10 11 12 13 14 15 16 17 18 19 20 21 22 23 24 25 26 27 28 29 30 31 32 33 34 35 36 37 38 39 40 41 42 43 44 45 46 47 48 49 50
000
ASUS44 KMAF 200210
RWRMAF
MIDLAND AREA WEATHER ROUNDUP
NATIONAL WEATHER SERVICE MIDLAND TX
800 PM CST SUN FEB 19 2017

...IN SOUTHWEST TEXAS AND SOUTHEAST NEW MEXICO...

CITY           SKY/WX    TMP DP  RH WIND       PRES   REMARKS
ALPINE         CLOUDY    56  23  28 W8        29.99S
ANDREWS        FAIR      54  43  66 SW5       29.88F
ARTESIA        PTCLDY    54  27  35 SW16      29.90R
BIG SPRING     CLOUDY    56  49  76 W9        29.88R
CARLSBAD       CLOUDY    55  26  32 W9        29.89S
DRYDEN           N/A     57  52  83 W5        29.85F
FORT STOCKTON  CLOUDY    57  33  40 NW6       29.89S
GUAD PASS      MOCLDY    46  25  43 W24       29.96R WCI  38
HOBBS          CLEAR     50  25  37 SW7       29.90S
MARFA          CLEAR     45  21  38 NW6       29.98R
MIDLAND AIRPK  CLOUDY    55  48  76 W7        29.88F
MIDLAND INTL   CLOUDY    53  47  79 W6        29.87S
ODESSA         PTCLDY    54  44  69 W3        29.88S
PECOS          CLOUDY    58  26  29 W8        29.89R
PRESIDIO       CLOUDY    62  38  41 E12       29.94R
SEMINOLE       CLOUDY    53  32  46 CALM      29.90R
SNYDER         DRIZZLE   58  45  60 SW12      29.86S
WINK           CLOUDY    56  26  31 W7        29.87S
$$
...OTHER STATIONS IN TEXAS...

CITY           SKY/WX    TMP DP  RH WIND       PRES   REMARKS
ABILENE        LGT RAIN  57  50  77 NW7       29.86R
AMARILLO       CLOUDY    54  41  61 S12       29.83S
AUSTIN         CLOUDY    74  68  81 SE10      29.81S
BROWNSVILLE    PTCLDY    75  72  90 SE17G25   29.76R
CORPUS CHRISTI CLOUDY    74  71  91 SE14      29.78R
DALLAS FTW     MOCLDY    72  66  81 SE17      29.81S
DEL RIO        LGT RAIN  60  56  86 E12       29.91R
EL PASO        PTCLDY    54  27  35 W14       29.96R
HOUSTON INT    LGT RAIN  71  68  90 SE16      29.91R
LUBBOCK        CLOUDY    55  42  61 S12       29.86F
SAN ANGELO     CLOUDY    60  48  64 W5        29.85R
SAN ANTONIO    CLOUDY    73  66  78 E15       29.78S
WACO           CLEAR     72  65  78 SE16G23   29.80F
WICHITA FALLS  NOT AVBL
$$
...OTHER LOCATIONS IN NEW MEXICO...

CITY           SKY/WX    TMP DP  RH WIND       PRES   REMARKS
ALAMAGORDO     PTCLDY    45  28  53 SE6       29.98R
ALBUQUERQUE    CLOUDY    48  31  51 NW8       29.92R
CANNON AFB     PTCLDY    47  29  49 S5        29.86R
CLOVIS         CLOUDY    48  28  46 S9        29.86R
HOLLOMAN AFB   CLEAR     50  29  44 S6        30.00R
ROSWELL        CLEAR     54  24  31 W12         N/A
RUIDOSO        CLOUDY    37  25  60 SW15G22   29.96R WCI  28
SANTA FE       CLEAR     36  29  75 W5        29.89R WCI  32
TRUTH OR CONSE CLEAR     49  28  44 W10       29.94R
TUCUMCARI      CLOUDY    52  31  44 S12       29.79S
$$



USA.gov is the U.S. government's official web portal to all federal, state and local government web resources and services.